Weather reports worldwide

Advertisment
Startbyn, Sweden (2181): temperature & dewpoint: 04.07.2020 11:00:00 - 10.07.2020 11:00:00 (CEST)Startbyn, Sweden (2181): wind speed & gusts: 04.07.2020 11:00:00 - 10.07.2020 11:00:00 (CEST)Startbyn, Sweden (2181): wind direction: 04.07.2020 11:00:00 - 10.07.2020 11:00:00 (CEST)Startbyn, Sweden (2181): reduced air pressure: 04.07.2020 11:00:00 - 10.07.2020 11:00:00 (CEST)Startbyn, Sweden (2181): visibility: 04.07.2020 11:00:00 - 10.07.2020 11:00:00 (CEST)Startbyn, Sweden (2181): precipitation: 04.07.2020 11:00:00 - 10.07.2020 11:00:00 (CEST)
Date & Time tt [°C] td [°C] ff [km/h] ff [kn] fx [km/h] fx [kn] dd ppp [hPa] vv [km] rr [mm]
10.07.2020 11:00:00 9,9 8,8 11 6 25 14 N 1003,3 20 2,0
10.07.2020 10:00:00 10,6 9,8 6 4 19 11 N 1002,6 7 1,4
10.07.2020 09:00:00 11,2 10,4 4 2 9 5 NE 1002,3 29 0,4
10.07.2020 08:00:00 10,7 10,2 4 2 11 6 N 1002,4 24 1,1
10.07.2020 07:00:00 10,4 9,9 4 2 8 4 NW 1002,6 7 6,4
10.07.2020 06:00:00 10,3 9,5 5 3 15 8 NNW 1002,7 1,6 2,2
10.07.2020 05:00:00 11,6 10,8 2 1 5 3 SW 1002,5 50 0,0
10.07.2020 04:00:00 10,8 10,2 0 0 3 2 N 1003,0 16 0,0
10.07.2020 03:00:00 11,1 10,6 0 0 4 2 N 1003,4 23 0,0
10.07.2020 02:00:00 10,6 10,1 0 0 3 2 N 1003,6 32 0,0
10.07.2020 01:00:00 10,4 9,6 0 0 3 2 N 1003,8 40 0,1
10.07.2020 00:00:00 10,2 9,6 0 0 6 3 N 1003,9 50 0,0
09.07.2020 23:00:00 10,2 9,3 0 0 4 2 N 1003,7 50 0,0
09.07.2020 22:00:00 11,6 9,7 0 0 4 2 N 1003,8 50 0,0
09.07.2020 21:00:00 13,6 9,8 3 1 9 5 WNW 1003,8 50 0,0
09.07.2020 20:00:00 14,8 9,4 4 2 15 8 S 1004,0 50 0,0
09.07.2020 19:00:00 16,6 8,3 6 4 22 12 SSE 1004,1 50 0,0
09.07.2020 18:00:00 17,8 8,4 8 4 18 10 S 1004,1 50 0,0
09.07.2020 17:00:00 17,6 10,2 6 4 19 10 S 1004,2 50 0,0
09.07.2020 16:00:00 17,6 10,5 8 4 18 10 S 1004,2 50 0,0
09.07.2020 15:00:00 18,4 10,0 10 5 24 13 S 1004,3 50 0,0
09.07.2020 14:00:00 17,7 10,1 8 4 16 9 S 1004,3 50 0,0
09.07.2020 13:00:00 17,9 9,3 3 2 9 5 SE 1004,3 50 0,1
09.07.2020 12:00:00 16,8 11,5 3 2 15 8 S 1004,5 50 0,0
09.07.2020 11:00:00 17,3 9,4 8 5 17 9 S 1004,5 50 0,0
09.07.2020 10:00:00 17,4 11,9 7 4 14 8 S 1004,7 50 0,0
09.07.2020 09:00:00 15,9 11,9 3 2 9 5 SE 1004,6 50 0,0
09.07.2020 08:00:00 14,0 11,2 4 2 6 3 ENE 1004,6 50 0,0
09.07.2020 07:00:00 13,2 10,9 4 2 9 5 SSW 1004,6 50 0,0
09.07.2020 06:00:00 12,7 11,8 3 1 5 3 E 1004,3 43 0,0
09.07.2020 05:00:00 12,0 11,6 2 1 8 4 SE 1004,1 34 0,0
09.07.2020 04:00:00 11,7 11,4 2 1 8 5 S 1003,8 6 0,0
09.07.2020 03:00:00 11,4 11,1 3 1 7 4 ESE 1003,7 7 0,0
09.07.2020 02:00:00 11,6 11,3 2 1 5 3 SE 1003,6 6 0,0
09.07.2020 01:00:00 11,3 11,0 0 0 4 2 N 1003,6 6 0,0
09.07.2020 00:00:00 10,9 10,4 0 0 3 2 N 1003,2 2,0 0,0
08.07.2020 23:00:00 11,6 11,2 0 0 4 2 N 1003,0 5 0,0
08.07.2020 22:00:00 12,2 11,6 0 0 5 3 N 1002,8 13 0,0
08.07.2020 21:00:00 13,1 12,3 0 0 7 4 N 1002,4 18 0,0
08.07.2020 20:00:00 13,9 12,8 3 2 4 2 SW 1002,1 49 0,0
08.07.2020 19:00:00 14,0 13,0 0 0 5 3 N 1002,0 26 0,2
08.07.2020 18:00:00 14,2 12,8 0 0 8 4 N 1002,0 6 1,1
08.07.2020 17:00:00 14,3 12,8 4 2 9 5 N 1001,9 50 0,1
08.07.2020 16:00:00 15,2 12,1 4 2 12 6 NNW 1001,8 50 0,0
08.07.2020 15:00:00 16,1 11,1 6 3 17 9 S 1001,8 50 0,0
08.07.2020 14:00:00 14,8 12,5 2 1 4 2 WNW 1002,0 50 0,0
08.07.2020 13:00:00 13,8 12,5 4 2 7 4 NNE 1001,7 26 1,3
08.07.2020 12:00:00 15,2 11,2 3 1 6 3 W 1001,4 50 0,0
08.07.2020 11:00:00 14,8 11,1 3 1 8 4 NNW 1001,3 50 0,0
08.07.2020 10:00:00 14,6 12,3 2 1 9 5 S 1001,1 50 0,0
08.07.2020 09:00:00 13,0 11,4 4 2 8 5 S 1001,0 50 0,0
08.07.2020 08:00:00 12,3 11,7 2 1 5 3 SE 1001,0 50 0,0
08.07.2020 07:00:00 11,6 11,3 2 1 4 2 ENE 1000,9 35 0,0
08.07.2020 06:00:00 11,2 10,9 0 0 6 4 N 1000,7 23 0,0
08.07.2020 05:00:00 10,9 10,6 0 0 8 4 N 1000,5 0,8 0,0
08.07.2020 04:00:00 10,6 10,3 0 0 5 3 N 1000,3 0,3 0,0
08.07.2020 03:00:00 10,1 9,8 0 0 3 2 N 1000,3 0,3 0,0
08.07.2020 02:00:00 10,0 9,7 0 0 3 2 N 1000,2 0,4 0,0
08.07.2020 01:00:00 10,6 10,3 0 0 3 2 N 1000,0 0,5 0,0
08.07.2020 00:00:00 11,0 10,7 0 0 3 2 N 999,6 0,2 0,0
07.07.2020 23:00:00 11,0 10,5 0 0 3 1 N 999,3 0,8 0,0
07.07.2020 22:00:00 12,2 11,7 0 0 2 1 N 999,2 7 0,2
07.07.2020 21:00:00 12,4 11,6 0 0 8 4 N 998,9 50 0,3
07.07.2020 20:00:00 12,8 12,0 3 2 9 5 ENE 998,7 6 3,7
07.07.2020 19:00:00 15,6 11,4 0 0 9 5 N 998,3 50 0,0
07.07.2020 18:00:00 15,1 11,7 4 2 10 5 W 998,2 50 0,0
07.07.2020 17:00:00 15,6 11,0 3 2 10 5 WSW 998,0 50 0,0
07.07.2020 16:00:00 14,9 10,9 3 2 7 4 W 997,8 50 0,0
07.07.2020 15:00:00 15,3 10,7 6 4 10 5 W 997,3 50 0,0
07.07.2020 14:00:00 14,2 11,4 3 2 10 5 S 997,2 16 0,2
07.07.2020 13:00:00 15,5 10,3 2 1 10 5 S 996,9 50 0,0
07.07.2020 12:00:00 14,7 11,3 3 1 8 4 SW 996,4 50 0,2
07.07.2020 11:00:00 13,2 11,7 4 2 10 5 E 996,1 8 1,0
07.07.2020 10:00:00 14,4 10,0 2 1 6 3 W 995,5 50 0,0
07.07.2020 09:00:00 14,4 11,0 3 1 7 4 WNW 994,9 50 0,0
07.07.2020 08:00:00 13,2 10,2 0 0 6 4 N 994,7 50 0,0
07.07.2020 07:00:00 12,1 10,3 4 2 8 4 SSW 994,2 50 0,0
07.07.2020 06:00:00 10,7 9,8 0 0 7 4 N 993,9 50 0,0
07.07.2020 05:00:00 9,5 9,0 0 0 3 2 N 993,2 22 0,0
07.07.2020 04:00:00 9,7 9,4 0 0 5 3 N 992,6 25 0,0
07.07.2020 03:00:00 9,4 8,9 2 1 5 3 ESE 992,1 37 0,0
07.07.2020 02:00:00 9,8 9,0 0 0 3 1 N 991,5 50 0,0
07.07.2020 01:00:00 10,4 9,5 0 0 4 2 N 991,3 50 0,0
07.07.2020 00:00:00 10,8 9,6 0 0 4 2 N 990,8 50 0,0
06.07.2020 23:00:00 11,1 9,5 0 0 5 3 N 990,6 50 0,0
06.07.2020 22:00:00 11,3 9,4 2 1 5 3 ESE 990,0 50 0,0
06.07.2020 21:00:00 12,1 8,9 0 0 5 3 N 989,5 50 0,0
06.07.2020 20:00:00 13,4 7,6 3 1 8 4 NNE 989,4 50 0,0
06.07.2020 19:00:00 14,1 6,9 4 2 9 5 ENE 989,3 50 0,0
06.07.2020 18:00:00 14,0 8,2 0 0 5 3 N 989,1 50 0,0
06.07.2020 17:00:00 13,8 7,7 0 0 8 5 N 989,2 50 0,0
06.07.2020 16:00:00 13,7 7,0 3 1 12 7 ENE 988,9 50 0,0
06.07.2020 15:00:00 13,8 7,1 5 3 14 8 E 988,5 50 0,0
06.07.2020 14:00:00 13,9 7,0 6 3 14 8 E 988,4 50 0,0
06.07.2020 13:00:00 14,0 6,6 6 4 16 9 N 988,4 50 0,0
06.07.2020 12:00:00 14,0 6,6 8 4 17 9 NNE 988,6 50 0,0
06.07.2020 11:00:00 12,9 6,2 6 3 16 9 NNE 988,9 50 0,0
06.07.2020 10:00:00 11,8 5,7 10 5 25 14 NE 989,3 50 0,0
06.07.2020 09:00:00 11,1 6,0 8 4 21 11 NNE 989,5 50 0,0
06.07.2020 08:00:00 10,2 6,3 6 3 21 11 N 989,7 50 0,0
06.07.2020 07:00:00 8,9 6,2 6 4 16 9 N 990,3 50 0,0
06.07.2020 06:00:00 9,0 6,6 8 4 22 12 N 990,7 50 0,0
06.07.2020 05:00:00 9,4 6,9 4 2 11 6 N 991,1 50 0,0
06.07.2020 04:00:00 7,0 5,9 0 0 9 5 N 992,1 50 0,0
06.07.2020 03:00:00 6,9 5,8 2 1 9 5 NNW 992,6 50 0,0
06.07.2020 02:00:00 8,7 6,7 5 3 10 5 N 992,8 50 0,0
06.07.2020 01:00:00 9,7 8,6 2 1 4 2 NNW 993,1 50 0,0
06.07.2020 00:00:00 10,5 8,9 0 0 4 2 N 993,8 50 0,0
05.07.2020 23:00:00 11,3 9,2 0 0 5 3 N 994,0 50 0,0
05.07.2020 22:00:00 11,2 9,3 3 2 8 4 S 994,6 50 0,0
05.07.2020 21:00:00 11,0 8,6 3 1 5 3 NW 994,5 46 0,0
05.07.2020 20:00:00 14,1 6,9 0 0 5 3 N 995,0 50 0,0
05.07.2020 19:00:00 14,7 5,8 4 2 9 5 NNE 995,0 50 0,0
05.07.2020 18:00:00 14,8 6,6 0 0 11 6 N 995,3 50 0,0
05.07.2020 17:00:00 15,5 7,7 3 2 17 9 WNW 995,6 50 0,0
05.07.2020 16:00:00 14,6 7,2 8 5 17 9 W 995,9 50 0,0
05.07.2020 15:00:00 14,1 7,4 7 4 21 12 WNW 996,0 50 0,0
05.07.2020 14:00:00 13,5 8,6 6 4 25 13 WNW 995,7 50 0,0
05.07.2020 13:00:00 10,9 8,8 6 3 25 13 WNW 995,7 50 0,0
05.07.2020 12:00:00 10,0 8,6 8 4 24 13 NW 995,5 48 0,1
05.07.2020 11:00:00 9,0 8,0 10 6 32 17 WNW 995,0 21 0,3
05.07.2020 10:00:00 9,0 8,1 10 6 29 15 WNW 994,3 12 0,2
05.07.2020 09:00:00 8,7 8,1 8 5 26 14 NW 993,8 17 0,3
05.07.2020 08:00:00 8,4 7,8 11 6 29 16 WNW 993,4 4,0 1,0
05.07.2020 07:00:00 8,9 8,1 8 5 22 12 WNW 993,3 9 0,7
05.07.2020 06:00:00 9,4 8,9 8 5 19 10 WNW 993,5 10 2,0
05.07.2020 05:00:00 9,3 9,0 2 1 9 5 SSW 993,7 4,7 2,3
05.07.2020 04:00:00 9,3 9,0 0 0 9 5 N 994,1 9 1,7
05.07.2020 03:00:00 9,3 9,0 2 1 5 3 SSW 994,4 19 0,4
05.07.2020 02:00:00 9,4 9,1 0 0 5 3 N 994,9 12 0,4
05.07.2020 01:00:00 9,3 9,0 3 2 5 3 SW 995,5 12 0,0
05.07.2020 00:00:00 9,3 9,0 0 0 4 2 N 995,9 42 0,0
04.07.2020 23:00:00 9,4 8,9 3 1 4 2 N 996,0 29 0,1
04.07.2020 22:00:00 9,8 9,2 2 1 8 4 NE 996,6 50 0,0
04.07.2020 21:00:00 10,0 9,4 3 2 13 7 NNE 996,9 31 1,4
04.07.2020 20:00:00 11,1 10,5 4 2 11 6 ESE 997,6 9 3,2
04.07.2020 19:00:00 11,0 10,2 3 2 7 4 NNE 998,3 9 2,2
04.07.2020 18:00:00 11,3 10,5 4 2 8 4 SW 998,9 7 3,6
04.07.2020 17:00:00 12,8 9,8 2 1 7 4 E 999,3 41 0,2
04.07.2020 16:00:00 13,3 8,4 2 1 7 4 NNE 999,8 50 0,1
04.07.2020 15:00:00 13,3 10,1 5 3 23 12 S 1000,6 50 0,1
04.07.2020 14:00:00 14,8 8,1 8 4 23 12 S 1000,7 45 0,0
04.07.2020 13:00:00 16,6 6,4 6 3 13 7 S 1000,6 50 0,0
04.07.2020 12:00:00 16,5 6,0 4 2 14 7 SSW 1000,6 50 0,0
04.07.2020 11:00:00 13,8 6,0 6 4 16 9 WSW 1001,2 50 0,0

tt = temperature
td = dewpoint
ff = wind speed
fx = gusts
dd = wind direction
ppp = reduced air pressure
vv = visibility
rr = precipitation

Next stations